Weather History for Monticello, NY

Change the Weather History Date:

Thursday, August 14, 2014

  Actual Average Record
Temperature  
Mean Temperature 59 °F -  
Max Temperature 68 °F 76 °F 93 °F (2002)
Min Temperature 50 °F 57 °F 48 °F (2006)
Degree Days  
Heating Degree Days 6    
Growing Degree Days 9 (Base 50)    
Moisture  
Dew Point 51 °F    
Average Humidity 74    
Maximum Humidity 100    
Minimum Humidity 49    
Precipitation  
Precipitation 0.00 in - - ()
Sea Level Pressure  
Sea Level Pressure 29.88 in    
Wind  
Wind Speed 8 mph (West)    
Max Wind Speed 14 mph    
Max Gust Speed 20 mph    
Visibility 10 miles    
Events      
Averages and records for this station are not official NWS values.
T = Trace of Precipitation, MM = Missing Value Source: NWS Daily Summary

Daily Weather History Graph

Daily Weather History Graph

Search for Another Location

Airport:

Trip Planner

Search our weather history database for the weather conditions in past years. The results will help you decide how hot, cold, wet, or windy it might be!

Date:

Astronomy

Aug. 14, 2014 Rise Set
Actual Time 6:06 AM EDT 8:00 PM EDT
Civil Twilight 5:36 AM EDT 8:30 PM EDT
Nautical Twilight 4:59 AM EDT 9:06 PM EDT
Astronomical Twilight 4:20 AM EDT 9:46 PM EDT
Moon 10:17 PM EDT (8/14) 10:45 AM EDT (8/14)
Length of Visible Light 14h 53m
Length of Day
13h 53m
Waning Gibbous, 79% of the Moon is Illuminated
Aug 14
Waning Gibbous
Aug 17
Last Quarter
Aug 25
New
Sep 2
First Quarter
Sep 8
Full

Hourly Weather History & Observations

Time (EDT) Temp. Dew Point Humidity Pressure Visibility Wind Dir Wind Speed Gust Speed Precip Events Conditions
12:15 AM 60.8 °F 53.6 °F 77% 29.84 in 10.0 mi West 11.5 mph - N/A   Clear
12:35 AM 59.0 °F 53.6 °F 82% 29.85 in 10.0 mi West 6.9 mph - N/A   Clear
12:55 AM 59.0 °F 51.8 °F 77% 29.85 in 10.0 mi WNW 6.9 mph - N/A   Clear
1:15 AM 59.0 °F 51.8 °F 77% 29.84 in 10.0 mi WNW 13.8 mph - N/A   Clear
1:35 AM 57.2 °F 51.8 °F 82% 29.85 in 10.0 mi WNW 9.2 mph - N/A   Scattered Clouds
1:55 AM 57.2 °F 51.8 °F 82% 29.84 in 10.0 mi WNW 10.4 mph - N/A   Scattered Clouds
2:15 AM 57.2 °F 51.8 °F 82% 29.84 in 10.0 mi West 9.2 mph - N/A   Scattered Clouds
2:35 AM 57.2 °F 53.6 °F 88% 29.84 in 10.0 mi WNW 8.1 mph - N/A   Mostly Cloudy
2:55 AM 57.2 °F 51.8 °F 82% 29.84 in 10.0 mi WNW 9.2 mph - N/A   Partly Cloudy
3:15 AM 57.2 °F 50.0 °F 77% 29.83 in 10.0 mi WNW 11.5 mph 19.6 mph N/A   Clear
3:35 AM 55.4 °F 48.2 °F 77% 29.84 in 10.0 mi WNW 8.1 mph 17.3 mph N/A   Clear
3:55 AM 55.4 °F 48.2 °F 77% 29.84 in 10.0 mi WNW 9.2 mph - N/A   Clear
4:15 AM 55.4 °F 48.2 °F 77% 29.85 in 10.0 mi WNW 6.9 mph - N/A   Clear
4:35 AM 53.6 °F 48.2 °F 82% 29.85 in 10.0 mi WNW 4.6 mph - N/A   Scattered Clouds
4:55 AM 53.6 °F 48.2 °F 82% 29.85 in 10.0 mi WNW 6.9 mph - N/A   Scattered Clouds
5:15 AM 53.6 °F 48.2 °F 82% 29.86 in 10.0 mi West 5.8 mph - N/A   Partly Cloudy
5:35 AM 51.8 °F 46.4 °F 82% 29.86 in 10.0 mi West 5.8 mph - N/A   Partly Cloudy
5:55 AM 51.8 °F 46.4 °F 82% 29.87 in 10.0 mi West 4.6 mph - N/A   Partly Cloudy
6:15 AM 50.0 °F 46.4 °F 87% 29.87 in 10.0 mi West 6.9 mph - N/A   Clear
6:35 AM 51.8 °F 46.4 °F 82% 29.87 in 10.0 mi West 8.1 mph - N/A   Scattered Clouds
6:55 AM 51.8 °F 46.4 °F 82% 29.87 in 10.0 mi West 4.6 mph - N/A   Mostly Cloudy
7:15 AM 51.8 °F 48.2 °F 88% 29.88 in 10.0 mi West 6.9 mph - N/A   Clear
7:35 AM 53.6 °F 48.2 °F 82% 29.89 in 10.0 mi West 9.2 mph - N/A   Clear
7:55 AM 53.6 °F 48.2 °F 82% 29.89 in 10.0 mi West 8.1 mph - N/A   Clear
8:15 AM 55.4 °F 48.2 °F 77% 29.90 in 10.0 mi West 8.1 mph - N/A   Clear
8:35 AM 57.2 °F 48.2 °F 72% 29.90 in 10.0 mi West 8.1 mph - N/A   Clear
8:55 AM 57.2 °F 50.0 °F 77% 29.90 in 10.0 mi WNW 5.8 mph - N/A   Clear
9:15 AM 57.2 °F 50.0 °F 77% 29.90 in 10.0 mi WNW 9.2 mph - N/A   Partly Cloudy
9:35 AM 59.0 °F 51.8 °F 77% 29.90 in 10.0 mi WNW 6.9 mph - N/A   Scattered Clouds
9:55 AM 60.8 °F 50.0 °F 68% 29.90 in 10.0 mi West 9.2 mph 18.4 mph N/A   Mostly Cloudy
10:15 AM 60.8 °F 50.0 °F 68% 29.90 in 10.0 mi NW 10.4 mph 18.4 mph N/A   Mostly Cloudy
10:35 AM 62.6 °F 50.0 °F 63% 29.90 in 10.0 mi NW 8.1 mph - N/A   Mostly Cloudy
10:55 AM 62.6 °F 50.0 °F 63% 29.91 in 10.0 mi West 6.9 mph 16.1 mph N/A   Mostly Cloudy
11:15 AM 62.6 °F 48.2 °F 59% 29.90 in 10.0 mi West 10.4 mph - N/A   Mostly Cloudy
11:35 AM 64.4 °F 50.0 °F 59% 29.91 in 10.0 mi West 10.4 mph - N/A   Mostly Cloudy
11:55 AM 64.4 °F 48.2 °F 56% 29.90 in 10.0 mi WNW 10.4 mph 19.6 mph N/A   Mostly Cloudy
12:15 PM 64.4 °F 51.8 °F 64% 29.90 in 10.0 mi West 8.1 mph - N/A   Mostly Cloudy
12:35 PM 62.6 °F 50.0 °F 63% 29.90 in 10.0 mi NW 9.2 mph 17.3 mph N/A   Mostly Cloudy
1:15 PM 66.2 °F 48.2 °F 52% 29.88 in 10.0 mi West 12.7 mph 19.6 mph N/A   Scattered Clouds
1:35 PM 66.2 °F 50.0 °F 56% 29.88 in 10.0 mi WSW 9.2 mph - N/A   Scattered Clouds
1:55 PM 66.2 °F 48.2 °F 52% 29.88 in 10.0 mi West 9.2 mph - N/A   Mostly Cloudy
2:15 PM 66.2 °F 48.2 °F 52% 29.88 in 10.0 mi NW 8.1 mph 16.1 mph N/A   Mostly Cloudy
2:35 PM 66.2 °F 48.2 °F 52% 29.87 in 10.0 mi West 6.9 mph - N/A   Mostly Cloudy
2:55 PM 68.0 °F 50.0 °F 52% 29.87 in 10.0 mi WNW 5.8 mph - N/A   Mostly Cloudy
3:15 PM 68.0 °F 48.2 °F 49% 29.87 in 10.0 mi WNW 5.8 mph - N/A   Mostly Cloudy
3:35 PM 66.2 °F 48.2 °F 52% 29.87 in 10.0 mi WSW 5.8 mph - N/A   Scattered Clouds
3:55 PM 66.2 °F 48.2 °F 52% 29.87 in 10.0 mi West 5.8 mph - N/A   Mostly Cloudy
4:15 PM 64.4 °F 50.0 °F 59% 29.87 in 10.0 mi West 4.6 mph - N/A   Overcast
4:35 PM 66.2 °F 51.8 °F 60% 29.87 in 10.0 mi SW 4.6 mph - N/A   Mostly Cloudy
4:55 PM 66.2 °F 50.0 °F 56% 29.87 in 10.0 mi SW 5.8 mph - N/A   Mostly Cloudy
5:15 PM 68.0 °F 50.0 °F 52% 29.86 in 10.0 mi SSW 9.2 mph - N/A   Scattered Clouds
5:35 PM 66.2 °F 51.8 °F 60% 29.86 in 10.0 mi South 8.1 mph - N/A   Partly Cloudy
5:55 PM 64.4 °F 53.6 °F 68% 29.86 in 10.0 mi South 5.8 mph - N/A   Scattered Clouds
6:15 PM 64.4 °F 51.8 °F 64% 29.86 in 10.0 mi SSW 3.5 mph - N/A   Scattered Clouds
6:35 PM 66.2 °F 53.6 °F 64% 29.86 in 10.0 mi SW 3.5 mph - N/A   Partly Cloudy
6:55 PM 64.4 °F 53.6 °F 68% 29.86 in 10.0 mi Calm Calm - N/A   Scattered Clouds
7:15 PM 64.4 °F 53.6 °F 68% 29.86 in 10.0 mi Calm Calm - N/A   Mostly Cloudy
7:35 PM 62.6 °F 55.4 °F 77% 29.86 in 10.0 mi Calm Calm - N/A   Mostly Cloudy
7:55 PM 62.6 °F 57.2 °F 82% 29.88 in 10.0 mi WNW 11.5 mph 17.3 mph N/A   Mostly Cloudy
8:15 PM 59.0 °F 57.2 °F 94% 29.88 in 10.0 mi NNW 10.4 mph - N/A   Mostly Cloudy
8:35 PM 57.2 °F 57.2 °F 100% 29.89 in 10.0 mi NW 6.9 mph - N/A   Mostly Cloudy
8:55 PM 57.2 °F 55.4 °F 94% 29.91 in 10.0 mi WNW 3.5 mph - N/A   Scattered Clouds
9:15 PM 57.2 °F 55.4 °F 94% 29.91 in 10.0 mi Calm Calm - N/A   Mostly Cloudy
9:35 PM 57.2 °F 55.4 °F 94% 29.93 in 10.0 mi WNW 5.8 mph - N/A   Overcast
9:55 PM 57.2 °F 55.4 °F 94% 29.92 in 10.0 mi WNW 3.5 mph - N/A   Overcast
10:15 PM 55.4 °F 53.6 °F 94% 29.92 in 10.0 mi NW 4.6 mph - N/A   Scattered Clouds
10:35 PM 55.4 °F 53.6 °F 94% 29.92 in 10.0 mi Calm Calm - N/A   Clear
10:55 PM 55.4 °F 53.6 °F 94% 29.92 in 10.0 mi WNW 3.5 mph - N/A   Clear
11:15 PM 53.6 °F 51.8 °F 94% 29.93 in 10.0 mi Calm Calm - N/A   Clear
11:35 PM 53.6 °F 51.8 °F 94% 29.92 in 10.0 mi Calm Calm - N/A   Clear
11:55 PM 53.6 °F 51.8 °F 94% 29.93 in 10.0 mi Calm Calm - N/A   Clear